Current weather by "City, St" or "zip code"  
 
Advertise Here

Current Conditions: Hebron, Hebron Municipal Airport, NE

Light Snow


28.0 F

Last Updated on Jan 25 2021, 3:55 am CST
Humidity: 96%
Wind Speed: E 8.1 mph
Barometer 29.82 in
Dewpoint: 27.5 F
Visibility: 2.50 mi
Precip: --
Heat Index: NA
Wind Chill: 20 F
Current conditions at:

Hebron, Hebron Municipal Airport, NE (KHJH)

Lat: 40.15222 Lon: 97.58694

Local Radar Image active severe weather and emergency alerts image image weather storm and storm spotter reports image weather observation monitoring service image
Local
Radar
Active
Alerts
Storm Reports Obs
Monitoring

Sign-up For Email & Text Message Weather Alert Notification Services


Advertise Here

Observation History for Hebron, Hebron Municipal Airport, NE


Time Wind
(mph)
Vis
(mi)
Weather Precip (in) Temperature (F) Relative
Humidity
Wind
Chill
(F)
Heat
Index
(F)
Pressure
Air Dwpt altimeter
(in)
sea level
(mb)
Rmks
3:55 am CST E 8.1 2.50 Light Snow -- 28.0 27.5 96% 20 NA 29.82 M
2:55 am CST NE 9.2 3.00 Fog/Mist -- 28.0 26.6 95% 19 NA 29.83 M
1:55 am CST NE 10.4 5.00 Fog/Mist -- 28.0 26.6 94% 19 NA 29.87 M
12:55 am CST E 9.2 5.00 Light Snow -- 28.0 26.6 94% 19 NA 29.89 M
11:55 pm CST E 10.4 7.00 Unknown Precip -- 28.0 26.4 93% 19 NA 29.94 M
10:55 pm CST NE 9.2 7.00 Overcast -- 28.0 25.5 90% 19 NA 29.94 M
9:55 pm CST NE 4.6 10.00 Overcast -- 28.0 24.6 86% 23 NA 29.97 M
8:55 pm CST NE 5.8 10.00 Overcast -- 28.0 24.6 86% 22 NA 29.97 M
7:55 pm CST NE 5.8 10.00 Overcast -- 28.0 24.8 86% 22 NA 29.97 M
6:55 pm CST NE 6.9 10.00 Overcast -- 28.0 24.6 86% 21 NA 29.97 M
5:55 pm CST E 8.1 10.00 Overcast -- 29.0 24.4 83% 21 NA 29.99 M
5:35 pm CST NE 6.9 10.00 Overcast -- 29.0 25.0 85% 22 NA 30.00 M
4:55 pm CST NE 8.1 10.00 Overcast -- 29.0 24.8 83% 21 NA 30.00 M
3:50 pm CST E 6.9 10.00 Overcast -- 30.0 24.8 81% 23 NA 30.02 M
3:35 pm CST NE 5.8 10.00 Overcast -- 30.0 25.2 82% 24 NA 30.03 M
2:55 pm CST NE 5.8 10.00 Overcast -- 30.0 25.3 82% 24 NA 30.03 M
1:55 pm CST N 5.8 10.00 Overcast -- 30.0 25.2 82% 24 NA 30.04 M
1:35 pm CST NE 11.5 10.00 Overcast -- 31.0 25.7 82% 22 NA 30.03 M
12:55 pm CST N 8.1 10.00 Overcast -- 30.0 25.9 84% 22 NA 30.05 M
12:35 pm CST NE 11.5 10.00 Overcast -- 30.0 26.1 85% 20 NA 30.05 M
11:55 am CST NE 12.7 10.00 Overcast -- 30.0 25.7 83% 20 NA 30.08 M
10:55 am CST NE 10.4 10.00 Overcast -- 30.0 25.7 85% 21 NA 30.10 M
9:55 am CST NE 9.2 10.00 Overcast -- 30.0 26.2 86% 22 NA 30.10 M
8:55 am CST N 11.5 10.00 Overcast -- 29.0 25.7 86% 19 NA 30.05 M

Regional Weather Observation


York, York Municipal Airport, NE (KJYR)

Light Snow Fog/Mist
25.0 F

Aurora, Aurora Municipal Airport, NE (KAUH)

Light Snow
25.0 F

Hastings, Hastings Municipal Airport, NE (KHSI)

Light Snow Fog/Mist
25.0 F

Grand Island, Central Nebraska Regional Airport, NE (KGRI)

Light Snow Fog/Mist
25.0 F

Concordia, Blosser Municipal Airport, KS (KCNK)

Unknown Precip Fog/Mist
29.0 F

Beatrice Municipal, NE (KBIE)

Light Snow
29.0 F